Погода в Кирове

Погода в Кирове : погода сейчас, прогноз погоды и архив. Всё, что Вы хотите узнать о погоде в Кирове!

Хотите узнать прогноз погоды в Кирове? Тогда Вам сюда: Погода в Кирове

Поиск расширенной информации на нашем сайте:

Другие новости

Новости СМИ2

Главная страница сайта

Новости сайта

03.07.2017

Напоминаем, что на нашем специализированном сайте Метеоцентр.Азия вы можете получить высокодетализированные автоматические прогнозы погоды по пунктам России, СНГ и мира в авиационном формате (включающие направление и скорость ветра, видимость, явления погоды, количество и форму облачности, нижнюю и верхнюю границу облачности).

Рекомендуем: Деревянные окна Marconi

Погода в Кирове - сегодня

Время (UTC), дата Ветер
(°,м/с) 
Видим.   Явления Облачность Т
(°С)
Тd
(°С)
f(%) Тe
(°С)
Pmin
(гПа)
dP
(гПа)
Po
(мм)
O2
(г/м3)
Тmin Tmax R s Состояние
почвы
21 23.07.17 тихо () -0{04}  20000 м  слаб. дождь{ливн. осадки}  10/10 600 м 
[Sc diur, vesp]
+16 +14.2 89 +24  1006.2  -1.5  741  279           
00 24.07.17 тихо () -0{02}  20000 м  слаб. ливневой дождь  10/10 300 м кучево-дожд. 
[Cb calv]
+15 +14.1 94 +23  1004.8  -1.4  740  280           
03 24.07.17 060 (СВ) 1-2{04}  20000 м  слаб. ливневой дождь  10/10 300 м кучево-дожд. 
[Cb calv]
+14.8 +14.1 96 +24  1003  -1.8  738  279  +14.8    14    влажная 
06 24.07.17 250 (З) 1-2{04}  10 км  слаб. ливневой дождь  10/8 300 м кучево-дожд., средняя 
[Cb cap|As op]
+14.6 +14 96 +23  1001.9  -1.1  737  279  +14.5         
09 24.07.17 250 (З) 2-4{05}  20000 м  {ливн. осадки}  9/9 300 м кучево-дожд. 
[Cb cap]
+16.8 +15.4 91 +28  1001.4  -0.3  737  277           
12 24.07.17 270 (З) 3-6{08}  4000 м  ливневой дождь  10/10 300 м кучево-дожд. 
[Cb cap]
+15.1 +14.6 97 +23  1001.6  737  278           
15 24.07.17 270 (З) 2-4{07}  2000 м  дождь{морось}  10/10 200 м 
[St]
+14.6 +14 96 +22  1000.4  -1.1  736  279    +17     
18 24.07.17 250 (З) 1-3{04}  4000 м  ливневой дождь  10/10 200 м кучево-дожд. 
[Cb cap]
+14.2 +13.8 97 +22  999.7  -0.7  736  279           
21 24.07.17 310 (СЗ) 1-2{03}  2000 м  морось{ливн. осадки}  10/10 200 м 
[St]
+14.2 +13.8 97 +22  999.7  736  279           
00 25.07.17 350 (С) 1-3{06}  20000 м  {ливн. осадки, морось}  9/9 200 м 
[St]
+13.3 +12.9 97 +21  1000.6  0.8  737  280           
03 25.07.17 350 (С) 2-4{06}  10 км  слаб. морось  10/10 200 м 
[St]
+13.5 +13.1 97 +20  1002.1  1.5  738  281  +12.9      мокрая 
06 25.07.17 030 (СВ) 2-3{05}  20000 м  {ливн. осадки, морось}  9/9 300 м кучево-дожд. 
[Cb calv]
+16.4 +14.1 86 +25  1003.2  1.2  739  278           
09 25.07.17 330 (СЗ) 2-5{05}  20000 м  в посл. час ливневой дождь  9/9 300 м кучево-дожд. 
[Cb calv]
+17 +14.6 86 +26  1004.1  739  277           
12 25.07.17 320 (СЗ) 1-3{05}  20000 м  {ливн. осадки}  6/6 300 м кучево-дожд. 
[Cb calv]
+19.4 +12.1 63 +25  1004.7  0.7  740  276           
15 25.07.17 310 (СЗ) 1-3{04}  20000 м    4/3 300 м кучево-дожд., верхняя 
[Cb calv|Ci fib]
+19.6 +12.9 65 +27  1004.5  -0.1  740  276    +19.6  0.0     
18 25.07.17 270 (З) 1-2{03}  20000 м    9/6 600 м кучево-дожд., средняя 
[Cb calv|Ac trans]
+16.4 +13.9 85 +25  1005.5  0.7  740  279           
21 25.07.17 270 (З) 1-2{03}  20000 м    6/3 600 м кучево-дожд., средняя 
[Cb calv|Ac trans]
+15 +13.4 90 +22  1005.2  -0.4  740  280           
00 26.07.17 тихо () -0{02}  20000 м    8/3 600 м кучево-дожд., средняя 
[Cb calv|Ac As]
+12.2 +11.7 97 +16  1005.3  740  283           
03 26.07.17 270 (З) 1-2{03}  20000 м    8/0 средняя, верхняя 
[Ac trans|Ci]
+14.2 +13.8 97 +22  1005.5  0.3  740  281  +11.9        влажная 
06 26.07.17 300 (СЗ) 2-5{05}  20000 м    9/8 300 м кучево-дожд., верхняя 
[Cb calv|Ci fib]
+19.6 +15.8 79 +31  1004.8  -0.3  740  275           
09 26.07.17 300 (СЗ) 2-6{06}  20000 м    9/5 600 м верхняя 
[Cu med, cong|Ci fib]
+22.4 +15.8 66 +33  1004.4  -0.3  740  272           
12 26.07.17 300 (СЗ) 2-4{06}  20000 м    9/6 300 м кучево-дожд., верхняя 
[Cb calv|Ci fib]
+23.8 +15.7 60 +34  1004.8  0.5  740  271           
15 26.07.17 310 (СЗ) 1-3{07}  20000 м    8/6 300 м кучево-дожд., верхняя 
[Cb calv|Ci fib]
+22.6 +15.9 66 +33  1005.2  0.3  740  272    +24.1       
18 26.07.17 280 (З) 1-2{04}  20000 м    10/3 300 м кучево-дожд., верхняя 
[Cb calv|Cs]
+20 +16.2 79 +31  1006.4  741  275           
21 26.07.17 тихо () -0{04}  20000 м    10/0 верхняя 
[Cs]
+17.9 +15.5 86 +28  1006.8  0.3  741  277           
Время (UTC), дата Ветер
(°,м/с) 
Видим.   Явления Облачность Т
(°С)
Тd
(°С)
f(%) Тe
(°С)
Pmin
(гПа)
dP
(гПа)
Po
(мм)
O2
(г/м3)
Тmin Tmax R s Состояние
почвы

Для получения пояснительной информации подведите курсор к названию столбца.

ПОГОДА в Кирове - архив

Всё, что Вы хотите узнать о погоде в Кирове - удобно и подробно!

Выберите нужную дату (начиная с 1 января 2015* года) и нажмите кнопку "Найти".
Будут отображены архивные сводки погоды по пункту Киров, начиная с указанной даты.


Отображать данные в формате CSV (для использования в таблицах Excel)


Внимание! Наш архив погоды предназначен исключительно для личного некоммерческого использования в познавательных целях. Если Вам необходимы официальные справки о состоянии погоды (для производственных, юридических, коммерческих и т.п. целей), обращайтесь в органы Росгидромета.

*Примечание: данная дата относится к архиву по метеостанциям СССР (Россия, СНГ, Балтия).
Архив по метеостанциям Зарубежной Европы и Азии (кроме Китая) хранится 10 дней, по другим регионам земного шара (Китай, Африка, Америка, Австралия, Океания) - 1 день.

Киров - район местоположения метеостанции


Название, широта, долгота, высота метеостанции:
Киров 58.6°ш. 49.6°д. 158 м над ур. моря [Российская Федерация]

Дополнительная информация

В oтличие oт бoльшинства пoгoдных сайтoв мы публикуем пoдрoбную метеoинфoрмацию в детальнoм прoфессиoнальнoм фoрмате.

Характеристики температуры и влажнoсти вoздуха измеряются на высoте 2 м в тени вдали oт зданий и деревьев.
Скoрoсть ветра измеряется на высoте 10 м (на урoвне рoста челoвека скoрoсть ветра ниже в 1.5-2 раза). Если метеoстанция нахoдится в гoрoде или в лесу, тo скoрoсть ветра занижена на 2-4 м/с пo сравнению с oткрытым местoм. Скoрoсть ветра над акватoриями крупных рек и oзёр, а также на вершинах хoлмoв на 2-5 м/с выше, чем в oбычных услoвиях.
Атмoсфернoе давление в разных тoчках местнoсти мoжет значительнo oтличаться oт давления на метеoстанции, в зависимoсти oт услoвий рельефа (при пoдъёме на 10 м давление пoнижается примернo на 1 мм рт.ст.).